Погода в Ушаковке

Россия / Астраханская область     48°25′41″N   45°06′52″E
темп.,
°C
ветер,
м/с
пор.,
м/с
влажн.,
%
обл.,
%
осадки,
мм/ч
давл.,
гПа
погр.,
м
24 сентября, пт
пт2401:00+10с3386100 0.0 101259
04:00+10с3486100 0.0 101366
07:00+11ссв2583100 0.0 1012175
10:00+11ссв4679100 0.3 1011301
13:00+11ссз2384100 1.4 1012276
16:00+12сз1272100 1.5 1011350
19:00+12в3374100 0.0 101155
22:00+12ю227466 0.0 101132
25 сентября, сб
сб2501:00+10юз337485 0.0 101130
04:00+9юз338663 0.0 101026
07:00+10ююз3381100 0.0 101034
10:00+12ююз3671100 0.0 1010348
13:00+12ююз4979100 0.1 1010739
16:00+16юз4962100 0.3 10101321
19:00+14ююз6116797 0.3 1011363
22:00+12юз51078100 0.3 1011225
26 сентября, вс
вс2601:00+11з488422 0.0 1012208
04:00+9з48905 0.0 1013164
07:00+8з389112 0.0 1013159
10:00+13з586792 0.1 1013601
13:00+16з7851100 0.0 10121295
16:00+14зюз7957100 0.0 10111108
19:00+12зюз5118699 1.4 1009884
22:00+12зюз4991100 1.9 1007311
27 сентября, пн
пн2701:00+12зсз712834 1.0 1007472
04:00+10зсз713835 1.0 1008586
07:00+9зсз713855 0.0 1009546
10:00+12зсз8106935 0.0 1010902
13:00+14зсз895891 0.0 10121243
16:00+14сз8958100 0.1 10131279
19:00+13зсз4766100 0.0 1014443
22:00+13сз4773100 0.0 1015410
28 сентября, вт
вт2801:00+10ссз37865 0.0 1016143
04:00+9ссз368739 0.0 1018123
07:00+9с36905 0.0 1019130
10:00+12св567063 0.0 1021705
13:00+13ссв5561100 0.0 10221233
16:00+13ссв4555100 0.0 10231291
19:00+11ссв355617 0.0 102587
22:00+9всв22625 0.0 102613